EJU17DW LIMC-LFRS

Flight info

Callsign EJU17DW
Flight time 1h 18m
Altitude 36000
Route DOGUB6TXTOP6I/35R TOP DCT IXUSA DCT RONOP DCT GIGUS DCT BALSI DCT GIPNO DCT RUSIT DCT TIS DCT VALKU DCT PECNO DCT LMG DCT MANAK
Aircraft A320/M-SDE3FGHIRWY/LB1

Departure

Time 2026-05-05 21:13
Airport Milan Malpensa International Airport (LIMC)

Arrival

Time 2026-05-05 22:32
Airport Nantes Atlantique Airport (LFRS)
Time Latitude Longitude Altitude Speed Heading
2026-05-05 19:30 45.64536 8.72349 748 ft 0 kts 349°
2026-05-05 19:30 45.64520 8.72355 747 ft 0 kts 349°
2026-05-05 20:35 45.64519 8.72355 752 ft 0 kts 349°
2026-05-05 20:42 45.64508 8.72358 748 ft 4 kts 350°
2026-05-05 20:42 45.64483 8.72364 748 ft 2 kts 350°
2026-05-05 20:42 45.64461 8.72365 749 ft 4 kts 22°
2026-05-05 20:43 45.64442 8.72343 747 ft 4 kts 65°
2026-05-05 20:43 45.64434 8.72307 750 ft 3 kts 79°
2026-05-05 20:43 45.64433 8.72302 750 ft 1 kts 79°
2026-05-05 20:45 45.64437 8.72333 749 ft 6 kts 79°
2026-05-05 20:46 45.64443 8.72384 749 ft 4 kts 86°
2026-05-05 20:46 45.64435 8.72414 750 ft 3 kts 128°
2026-05-05 20:46 45.64409 8.72429 752 ft 6 kts 168°
2026-05-05 20:46 45.64369 8.72438 752 ft 5 kts 171°
2026-05-05 20:47 45.64339 8.72446 748 ft 5 kts 169°
2026-05-05 20:47 45.64273 8.72465 752 ft 12 kts 169°
2026-05-05 20:47 45.64200 8.72487 750 ft 10 kts 168°
2026-05-05 20:47 45.64119 8.72510 748 ft 15 kts 169°
2026-05-05 20:48 45.64055 8.72530 750 ft 0 kts 163°
2026-05-05 20:48 45.64045 8.72535 752 ft 0 kts 161°
2026-05-05 20:51 45.64043 8.72536 752 ft 0 kts 161°
2026-05-05 20:53 45.64034 8.72540 750 ft 7 kts 162°
2026-05-05 20:53 45.63950 8.72568 748 ft 13 kts 169°
2026-05-05 20:53 45.63857 8.72593 750 ft 16 kts 168°
2026-05-05 20:53 45.63727 8.72628 752 ft 20 kts 169°
2026-05-05 20:54 45.63585 8.72667 752 ft 21 kts 169°
2026-05-05 20:54 45.63436 8.72708 752 ft 22 kts 169°
2026-05-05 20:54 45.63279 8.72751 751 ft 23 kts 169°
2026-05-05 20:54 45.63118 8.72796 752 ft 24 kts 169°
2026-05-05 20:55 45.62949 8.72843 749 ft 25 kts 169°
2026-05-05 20:55 45.62772 8.72891 752 ft 26 kts 169°
2026-05-05 20:55 45.62591 8.72939 751 ft 26 kts 169°
2026-05-05 20:55 45.62417 8.72986 750 ft 26 kts 169°
2026-05-05 20:56 45.62240 8.73036 753 ft 26 kts 168°
2026-05-05 20:56 45.62057 8.73086 753 ft 27 kts 169°
2026-05-05 20:56 45.61912 8.73126 753 ft 15 kts 168°
2026-05-05 20:56 45.61820 8.73152 753 ft 10 kts 169°
2026-05-05 20:57 45.61759 8.73182 750 ft 9 kts 149°
2026-05-05 20:57 45.61724 8.73238 751 ft 7 kts 123°
2026-05-05 20:57 45.61700 8.73289 751 ft 5 kts 123°
2026-05-05 20:57 45.61682 8.73329 750 ft 4 kts 123°
2026-05-05 20:58 45.61679 8.73335 751 ft 0 kts 123°
2026-05-05 21:00 45.61675 8.73345 749 ft 3 kts 123°
2026-05-05 21:00 45.61670 8.73356 750 ft 1 kts 123°
2026-05-05 21:00 45.61669 8.73357 750 ft 0 kts 124°
2026-05-05 21:02 45.61667 8.73361 749 ft 4 kts 124°
2026-05-05 21:03 45.61638 8.73422 750 ft 4 kts 124°
2026-05-05 21:03 45.61633 8.73434 750 ft 1 kts 124°
2026-05-05 21:03 45.61630 8.73439 750 ft 2 kts 124°
2026-05-05 21:03 45.61626 8.73447 751 ft 0 kts 124°
2026-05-05 21:07 45.61625 8.73449 752 ft 2 kts 124°
2026-05-05 21:07 45.61600 8.73503 751 ft 0 kts 120°
2026-05-05 21:10 45.61596 8.73515 749 ft 5 kts 120°
2026-05-05 21:10 45.61582 8.73582 751 ft 5 kts 93°
2026-05-05 21:10 45.61583 8.73603 750 ft 0 kts 84°
2026-05-05 21:11 45.61583 8.73606 750 ft 2 kts 83°
2026-05-05 21:12 45.61598 8.73699 745 ft 6 kts 65°
2026-05-05 21:12 45.61619 8.73728 745 ft 6 kts 31°
2026-05-05 21:12 45.61649 8.73733 745 ft 3 kts 355°
2026-05-05 21:12 45.61672 8.73727 744 ft 11 kts 350°
2026-05-05 21:13 45.61948 8.73648 744 ft 75 kts 348°
2026-05-05 21:13 45.62667 8.73448 746 ft 132 kts 349°
2026-05-05 21:13 45.63735 8.73147 811 ft 171 kts 348°
2026-05-05 21:13 45.64911 8.72891 1387 ft 175 kts 356°
2026-05-05 21:14 45.66144 8.72768 2025 ft 181 kts 357°
2026-05-05 21:14 45.67440 8.72648 2524 ft 193 kts 359°
2026-05-05 21:14 45.68860 8.72603 2805 ft 216 kts
2026-05-05 21:14 45.70429 8.72592 3175 ft 234 kts
2026-05-05 21:15 45.72053 8.72267 3807 ft 240 kts 334°
2026-05-05 21:15 45.73261 8.70664 4510 ft 240 kts 294°
2026-05-05 21:15 45.73508 8.68342 5217 ft 238 kts 256°
2026-05-05 21:15 45.72990 8.66130 5839 ft 241 kts 248°
2026-05-05 21:16 45.72414 8.63879 5986 ft 241 kts 249°
2026-05-05 21:16 45.71853 8.61626 6006 ft 240 kts 250°
2026-05-05 21:16 45.71431 8.60152 6012 ft 239 kts 241°
2026-05-05 21:16 45.70505 8.57990 6072 ft 268 kts 237°
2026-05-05 21:17 45.69499 8.55704 6708 ft 275 kts 237°
2026-05-05 21:17 45.68399 8.53451 6933 ft 274 kts 226°
2026-05-05 21:17 45.66940 8.51742 7073 ft 275 kts 208°
2026-05-05 21:17 45.65173 8.50643 7898 ft 275 kts 204°
2026-05-05 21:18 45.63616 8.49108 8749 ft 277 kts 226°
2026-05-05 21:18 45.62578 8.46787 9587 ft 281 kts 243°
2026-05-05 21:18 45.61741 8.44240 10343 ft 286 kts 244°
2026-05-05 21:18 45.60870 8.41572 10578 ft 309 kts 244°
2026-05-05 21:19 45.59935 8.38708 10931 ft 325 kts 244°
2026-05-05 21:19 45.58969 8.35744 11602 ft 329 kts 244°
2026-05-05 21:19 45.57992 8.32759 12333 ft 332 kts 244°
2026-05-05 21:19 45.57006 8.29758 13073 ft 335 kts 244°
2026-05-05 21:20 45.56023 8.26774 13804 ft 337 kts 244°
2026-05-05 21:20 45.55015 8.23724 14458 ft 339 kts 244°
2026-05-05 21:20 45.54005 8.20671 15114 ft 341 kts 243°
2026-05-05 21:20 45.52990 8.17603 15811 ft 342 kts 243°
2026-05-05 21:21 45.51972 8.14530 16472 ft 343 kts 243°
2026-05-05 21:21 45.50960 8.11479 17106 ft 345 kts 243°
2026-05-05 21:21 45.49926 8.08365 17735 ft 347 kts 243°
2026-05-05 21:21 45.49058 8.05145 18329 ft 354 kts 255°
2026-05-05 21:22 45.48757 8.01635 18841 ft 359 kts 261°
2026-05-05 21:22 45.48546 7.98069 19388 ft 361 kts 261°
2026-05-05 21:22 45.48348 7.94491 19950 ft 363 kts 261°
2026-05-05 21:22 45.48152 7.90880 20513 ft 366 kts 261°
2026-05-05 21:23 45.47954 7.87236 21052 ft 368 kts 261°
2026-05-05 21:23 45.47754 7.83602 21596 ft 370 kts 261°
2026-05-05 21:23 45.47550 7.79922 22107 ft 373 kts 261°
2026-05-05 21:23 45.47347 7.76280 22617 ft 376 kts 261°
2026-05-05 21:24 45.47133 7.72539 23098 ft 380 kts 261°
2026-05-05 21:24 45.46911 7.68754 23591 ft 383 kts 261°
2026-05-05 21:24 45.46688 7.64958 24009 ft 385 kts 261°
2026-05-05 21:24 45.46464 7.61156 24447 ft 386 kts 261°
2026-05-05 21:25 45.46238 7.57332 24860 ft 386 kts 260°
2026-05-05 21:25 45.46011 7.53508 25201 ft 388 kts 261°
2026-05-05 21:25 45.45784 7.49690 25644 ft 388 kts 260°
2026-05-05 21:25 45.45554 7.45861 26046 ft 388 kts 260°
2026-05-05 21:26 45.45326 7.42073 26438 ft 390 kts 260°
2026-05-05 21:26 45.45093 7.38200 26835 ft 390 kts 259°
2026-05-05 21:26 45.44861 7.34353 27201 ft 392 kts 260°
2026-05-05 21:26 45.44624 7.30449 27611 ft 393 kts 260°
2026-05-05 21:27 45.44387 7.26614 27926 ft 394 kts 260°
2026-05-05 21:27 45.44146 7.22737 27988 ft 393 kts 260°
2026-05-05 21:27 45.43902 7.18849 28226 ft 393 kts 260°
2026-05-05 21:27 45.43656 7.14968 28510 ft 394 kts 260°
2026-05-05 21:28 45.43489 7.11043 28797 ft 400 kts 267°
2026-05-05 21:28 45.43927 7.07072 29115 ft 409 kts 275°
2026-05-05 21:28 45.44510 7.03152 29417 ft 410 kts 275°
2026-05-05 21:28 45.45110 6.99186 29755 ft 411 kts 276°
2026-05-05 21:29 45.45712 6.95220 29948 ft 415 kts 276°
2026-05-05 21:29 45.46325 6.91184 30119 ft 418 kts 276°
2026-05-05 21:29 45.46941 6.87112 30325 ft 419 kts 276°
2026-05-05 21:29 45.47555 6.83029 30540 ft 420 kts 276°
2026-05-05 21:30 45.48164 6.78949 30737 ft 422 kts 276°
2026-05-05 21:30 45.48760 6.74914 30987 ft 422 kts 276°
2026-05-05 21:30 45.49372 6.70763 31328 ft 421 kts 276°
2026-05-05 21:30 45.49967 6.66736 31616 ft 419 kts 276°
2026-05-05 21:31 45.50570 6.62664 31880 ft 418 kts 276°
2026-05-05 21:31 45.51172 6.58599 32158 ft 419 kts 276°
2026-05-05 21:31 45.51768 6.54553 32394 ft 420 kts 276°
2026-05-05 21:31 45.52362 6.50496 32689 ft 419 kts 276°
2026-05-05 21:32 45.52961 6.46382 33012 ft 418 kts 276°
2026-05-05 21:32 45.53542 6.42364 33343 ft 417 kts 276°
2026-05-05 21:32 45.54131 6.38290 33686 ft 417 kts 276°
2026-05-05 21:32 45.54715 6.34252 34000 ft 415 kts 276°
2026-05-05 21:33 45.55300 6.30205 34260 ft 415 kts 276°
2026-05-05 21:33 45.55882 6.26180 34456 ft 416 kts 276°
2026-05-05 21:33 45.56467 6.22115 34653 ft 417 kts 277°
2026-05-05 21:33 45.57043 6.18071 34774 ft 420 kts 277°
2026-05-05 21:34 45.57619 6.14006 34905 ft 422 kts 277°
2026-05-05 21:34 45.58204 6.09884 35069 ft 423 kts 277°
2026-05-05 21:34 45.58789 6.05746 35234 ft 423 kts 277°
2026-05-05 21:34 45.59368 6.01645 35404 ft 424 kts 277°
2026-05-05 21:35 45.59955 5.97483 35598 ft 424 kts 277°
2026-05-05 21:35 45.60538 5.93347 35783 ft 425 kts 277°
2026-05-05 21:35 45.61112 5.89254 35919 ft 425 kts 277°
2026-05-05 21:35 45.61697 5.85070 35968 ft 425 kts 277°
2026-05-05 21:36 45.62847 5.76819 35948 ft 426 kts 277°
2026-05-05 21:36 45.64000 5.68519 35945 ft 427 kts 277°
2026-05-05 21:37 45.65157 5.60175 35936 ft 427 kts 277°
2026-05-05 21:37 45.66302 5.51852 35938 ft 427 kts 277°
2026-05-05 21:38 45.67434 5.43556 35941 ft 427 kts 277°
2026-05-05 21:38 45.68564 5.35195 35930 ft 427 kts 277°
2026-05-05 21:39 45.69683 5.26838 35918 ft 428 kts 277°
2026-05-05 21:39 45.70808 5.18456 35936 ft 428 kts 277°
2026-05-05 21:40 45.71919 5.10133 35942 ft 429 kts 277°
2026-05-05 21:40 45.73041 5.01708 35944 ft 430 kts 277°
2026-05-05 21:41 45.74145 4.93291 35938 ft 430 kts 277°
2026-05-05 21:41 45.75247 4.84862 35937 ft 431 kts 277°
2026-05-05 21:42 45.76340 4.76471 35936 ft 431 kts 277°
2026-05-05 21:42 45.77435 4.68010 35940 ft 431 kts 277°
2026-05-05 21:43 45.78520 4.59543 35931 ft 432 kts 277°
2026-05-05 21:43 45.79594 4.51112 35929 ft 432 kts 277°
2026-05-05 21:44 45.80673 4.42620 35933 ft 433 kts 277°
2026-05-05 21:44 45.81745 4.34132 35936 ft 433 kts 277°
2026-05-05 21:45 45.82814 4.25614 35939 ft 434 kts 277°
2026-05-05 21:45 45.83870 4.17142 35934 ft 434 kts 277°
2026-05-05 21:46 45.84929 4.08578 35931 ft 435 kts 277°
2026-05-05 21:46 45.85974 4.00082 35933 ft 435 kts 277°
2026-05-05 21:47 45.87022 3.91513 35954 ft 435 kts 277°
2026-05-05 21:47 45.88060 3.82928 35946 ft 436 kts 277°
2026-05-05 21:48 45.89090 3.74413 35942 ft 436 kts 277°
2026-05-05 21:48 45.90120 3.65797 35935 ft 436 kts 276°
2026-05-05 21:49 45.91134 3.57265 35929 ft 436 kts 277°
2026-05-05 21:49 45.92151 3.48662 35937 ft 436 kts 277°
2026-05-05 21:50 45.93156 3.40073 35925 ft 436 kts 276°
2026-05-05 21:50 45.94160 3.31469 35921 ft 436 kts 276°
2026-05-05 21:51 45.95153 3.22911 35922 ft 436 kts 276°
2026-05-05 21:51 45.96148 3.14304 35932 ft 436 kts 276°
2026-05-05 21:52 45.97615 3.01420 35919 ft 436 kts 276°
2026-05-05 21:53 45.98583 2.92803 35917 ft 437 kts 276°
2026-05-05 21:53 45.99542 2.84170 35919 ft 437 kts 275°
2026-05-05 21:54 46.00269 2.75477 35935 ft 436 kts 273°
2026-05-05 21:54 46.00824 2.66835 35925 ft 437 kts 272°
2026-05-05 21:55 46.01406 2.58128 35921 ft 438 kts 273°
2026-05-05 21:55 46.02035 2.49385 35927 ft 438 kts 274°
2026-05-05 21:56 46.02663 2.40717 35929 ft 438 kts 273°
2026-05-05 21:56 46.03281 2.31952 35929 ft 439 kts 273°
2026-05-05 21:57 46.03882 2.23251 35929 ft 439 kts 273°
2026-05-05 21:57 46.04483 2.14482 35921 ft 440 kts 273°
2026-05-05 21:58 46.05078 2.05694 35931 ft 440 kts 273°
2026-05-05 21:58 46.05667 1.96964 35948 ft 441 kts 273°
2026-05-05 21:59 46.06258 1.88153 35947 ft 441 kts 273°
2026-05-05 21:59 46.06838 1.79359 35937 ft 442 kts 273°
2026-05-05 22:00 46.07403 1.70575 35940 ft 442 kts 273°
2026-05-05 22:00 46.07962 1.61769 35949 ft 442 kts 273°
2026-05-05 22:01 46.08515 1.52925 35947 ft 442 kts 273°
2026-05-05 22:01 46.09069 1.44104 35944 ft 443 kts 273°
2026-05-05 22:02 46.09618 1.35287 35945 ft 443 kts 273°
2026-05-05 22:02 46.10067 1.27946 35936 ft 443 kts 273°
2026-05-05 22:03 46.10675 1.17623 35939 ft 443 kts 273°
2026-05-05 22:03 46.11110 1.10262 35936 ft 443 kts 273°
2026-05-05 22:04 46.11632 1.01412 35938 ft 443 kts 273°
2026-05-05 22:04 46.12147 0.92535 35936 ft 443 kts 273°
2026-05-05 22:05 46.12654 0.83724 35940 ft 443 kts 273°
2026-05-05 22:05 46.13148 0.74857 35941 ft 443 kts 273°
2026-05-05 22:06 46.13638 0.65989 35940 ft 443 kts 273°
2026-05-05 22:06 46.14121 0.57160 35935 ft 443 kts 273°
2026-05-05 22:07 46.14604 0.48300 35932 ft 443 kts 273°
2026-05-05 22:07 46.15077 0.39486 35934 ft 443 kts 273°
2026-05-05 22:08 46.15544 0.30585 35930 ft 443 kts 273°
2026-05-05 22:08 46.15995 0.21750 35141 ft 448 kts 273°
2026-05-05 22:08 46.16223 0.17249 34292 ft 452 kts 273°
2026-05-05 22:09 46.16450 0.12736 33720 ft 448 kts 273°
2026-05-05 22:09 46.16672 0.08273 33126 ft 444 kts 273°
2026-05-05 22:09 46.16889 0.03886 32570 ft 439 kts 273°
2026-05-05 22:09 46.17109 -0.00536 32014 ft 435 kts 274°
2026-05-05 22:10 46.17322 -0.04827 31455 ft 433 kts 275°
2026-05-05 22:10 46.17536 -0.09156 30927 ft 431 kts 275°
2026-05-05 22:10 46.17744 -0.13448 30398 ft 429 kts 276°
2026-05-05 22:10 46.17952 -0.17768 29842 ft 428 kts 276°
2026-05-05 22:11 46.18153 -0.22024 29272 ft 425 kts 276°
2026-05-05 22:11 46.18347 -0.26266 28764 ft 421 kts 276°
2026-05-05 22:11 46.18540 -0.30483 28257 ft 418 kts 276°
2026-05-05 22:11 46.18733 -0.34660 27759 ft 414 kts 275°
2026-05-05 22:12 46.18923 -0.38779 27277 ft 411 kts 275°
2026-05-05 22:12 46.19111 -0.42844 26803 ft 407 kts 275°
2026-05-05 22:12 46.19300 -0.46896 26338 ft 404 kts 275°
2026-05-05 22:12 46.19485 -0.50938 25863 ft 401 kts 275°
2026-05-05 22:13 46.19662 -0.54941 25409 ft 398 kts 274°
2026-05-05 22:13 46.19834 -0.58918 24948 ft 395 kts 274°
2026-05-05 22:13 46.20005 -0.62864 24476 ft 393 kts 274°
2026-05-05 22:13 46.20175 -0.66790 24028 ft 390 kts 274°
2026-05-05 22:14 46.20341 -0.70653 23554 ft 388 kts 274°
2026-05-05 22:14 46.20507 -0.74530 23022 ft 386 kts 274°
2026-05-05 22:14 46.20671 -0.78420 22549 ft 382 kts 274°
2026-05-05 22:14 46.20829 -0.82186 22088 ft 379 kts 274°
2026-05-05 22:15 46.20990 -0.85983 21614 ft 376 kts 274°
2026-05-05 22:15 46.21319 -0.89696 21146 ft 372 kts 285°
2026-05-05 22:15 46.22186 -0.93166 20697 ft 367 kts 298°
2026-05-05 22:15 46.23554 -0.96248 20261 ft 362 kts 310°
2026-05-05 22:16 46.25332 -0.98810 19796 ft 358 kts 322°
2026-05-05 22:16 46.27276 -1.01056 19352 ft 356 kts 322°
2026-05-05 22:16 46.29208 -1.03275 18651 ft 361 kts 322°
2026-05-05 22:16 46.31188 -1.05524 18187 ft 360 kts 323°
2026-05-05 22:17 46.33152 -1.07741 17699 ft 358 kts 323°
2026-05-05 22:17 46.35105 -1.09942 17253 ft 354 kts 322°
2026-05-05 22:17 46.37045 -1.12137 16819 ft 350 kts 322°
2026-05-05 22:17 46.38965 -1.14316 16397 ft 347 kts 322°
2026-05-05 22:18 46.40851 -1.16463 15972 ft 344 kts 322°
2026-05-05 22:18 46.42702 -1.18573 15559 ft 342 kts 322°
2026-05-05 22:18 46.44594 -1.20734 15119 ft 339 kts 322°
2026-05-05 22:18 46.46419 -1.22823 14725 ft 337 kts 322°
2026-05-05 22:19 46.48247 -1.24917 14313 ft 335 kts 322°
2026-05-05 22:19 46.50079 -1.27018 13904 ft 333 kts 321°
2026-05-05 22:19 46.51897 -1.29107 13462 ft 331 kts 321°
2026-05-05 22:19 46.53688 -1.31168 13044 ft 328 kts 321°
2026-05-05 22:20 46.55473 -1.33220 12615 ft 324 kts 321°
2026-05-05 22:20 46.57223 -1.35230 12223 ft 321 kts 322°
2026-05-05 22:20 46.58977 -1.37243 11805 ft 318 kts 322°
2026-05-05 22:20 46.60690 -1.39210 11412 ft 316 kts 322°
2026-05-05 22:21 46.62400 -1.41174 11001 ft 313 kts 322°
2026-05-05 22:21 46.64105 -1.43135 10587 ft 311 kts 322°
2026-05-05 22:21 46.65803 -1.45091 10177 ft 309 kts 322°
2026-05-05 22:21 46.67454 -1.46997 9973 ft 300 kts 322°
2026-05-05 22:22 46.69060 -1.48852 9817 ft 289 kts 322°
2026-05-05 22:22 46.70618 -1.50653 9530 ft 285 kts 322°
2026-05-05 22:22 46.72165 -1.52445 8996 ft 280 kts 322°
2026-05-05 22:22 46.73673 -1.54194 8362 ft 276 kts 322°
2026-05-05 22:23 46.75173 -1.55930 7849 ft 271 kts 322°
2026-05-05 22:23 46.76637 -1.57626 7372 ft 268 kts 322°
2026-05-05 22:23 46.78096 -1.59319 6897 ft 267 kts 322°
2026-05-05 22:23 46.79524 -1.60978 6437 ft 264 kts 322°
2026-05-05 22:24 46.80965 -1.62654 5949 ft 263 kts 322°
2026-05-05 22:24 46.82399 -1.64324 5471 ft 263 kts 322°
2026-05-05 22:24 46.83816 -1.65974 5004 ft 259 kts 322°
2026-05-05 22:24 46.85216 -1.67604 4579 ft 256 kts 322°
2026-05-05 22:25 46.86599 -1.69216 4295 ft 244 kts 323°
2026-05-05 22:25 46.87865 -1.70695 4055 ft 227 kts 323°
2026-05-05 22:25 46.89074 -1.72104 3738 ft 222 kts 323°
2026-05-05 22:25 46.90303 -1.73534 3588 ft 224 kts 323°
2026-05-05 22:26 46.91526 -1.74960 3473 ft 224 kts 323°
2026-05-05 22:26 46.92736 -1.76142 3371 ft 214 kts 340°
2026-05-05 22:26 46.94135 -1.76556 3275 ft 202 kts
2026-05-05 22:26 46.95494 -1.76111 3193 ft 199 kts 25°
2026-05-05 22:27 46.96687 -1.75207 3099 ft 191 kts 27°
2026-05-05 22:27 46.97857 -1.74320 3011 ft 186 kts 27°
2026-05-05 22:27 46.99002 -1.73451 3006 ft 185 kts 27°
2026-05-05 22:27 47.00146 -1.72584 3011 ft 185 kts 27°
2026-05-05 22:28 47.01296 -1.71715 2912 ft 184 kts 27°
2026-05-05 22:28 47.02428 -1.70857 2721 ft 181 kts 27°
2026-05-05 22:28 47.03516 -1.70034 2486 ft 175 kts 27°
2026-05-05 22:28 47.04567 -1.69238 2243 ft 164 kts 27°
2026-05-05 22:29 47.05549 -1.68493 2024 ft 152 kts 27°
2026-05-05 22:29 47.06446 -1.67813 1821 ft 141 kts 27°
2026-05-05 22:29 47.07297 -1.67168 1662 ft 135 kts 26°
2026-05-05 22:29 47.08123 -1.66542 1467 ft 134 kts 26°
2026-05-05 22:30 47.08949 -1.65915 1276 ft 133 kts 26°
2026-05-05 22:30 47.09770 -1.65292 1093 ft 132 kts 26°
2026-05-05 22:30 47.10585 -1.64658 913 ft 132 kts 26°
2026-05-05 22:30 47.11407 -1.64033 746 ft 133 kts 24°
2026-05-05 22:31 47.12228 -1.63430 566 ft 135 kts 25°
2026-05-05 22:31 47.13052 -1.62792 372 ft 135 kts 26°
2026-05-05 22:31 47.13884 -1.62161 204 ft 133 kts 25°
2026-05-05 22:31 47.14695 -1.61545 99 ft 118 kts 26°
2026-05-05 22:32 47.15299 -1.61098 91 ft 75 kts 26°
2026-05-05 22:32 47.15615 -1.60850 86 ft 30 kts 30°
2026-05-05 22:32 47.15702 -1.60781 85 ft 1 kts 27°
2026-05-05 22:32 47.15722 -1.60766 88 ft 11 kts 28°
2026-05-05 22:33 47.15794 -1.60709 83 ft 10 kts 30°
2026-05-05 22:33 47.15831 -1.60645 83 ft 9 kts 67°
2026-05-05 22:33 47.15827 -1.60555 91 ft 4 kts 120°
2026-05-05 22:33 47.15803 -1.60512 92 ft 11 kts 132°
2026-05-05 22:34 47.15754 -1.60451 91 ft 7 kts 144°
2026-05-05 22:34 47.15724 -1.60419 90 ft 3 kts 145°
2026-05-05 22:34 47.15714 -1.60410 94 ft 2 kts 145°
2026-05-05 22:34 47.15681 -1.60374 92 ft 4 kts 138°
2026-05-05 22:35 47.15673 -1.60346 90 ft 5 kts 102°
2026-05-05 22:35 47.15687 -1.60296 93 ft 4 kts 45°
2026-05-05 22:35 47.15702 -1.60282 90 ft 4 kts 30°
2026-05-05 22:35 47.15706 -1.60277 90 ft 2 kts 38°
2026-05-05 22:36 47.15714 -1.60267 91 ft 0 kts 42°